Regional Weather Roundup
Issued by NWS

Home | Current Version | Previous Version | Graphics & Text | Print | Product List | Glossary Off
Versions: 1 2 3 4 5 6 7 8 9 10 11 12 13 14 15 16 17 18 19 20 21 22 23 24 25 26 27 28 29 30 31 32 33 34 35 36 37 38 39 40 41 42 43 44 45 46 47 48 49 50

000
ASUS43 KMPX 200001
RWRMN
WEATHER ROUNDUP FOR MINNESOTA
NATIONAL WEATHER SERVICE TWIN CITIES/CHANHASSEN MN
700 PM CDT FRI SEP 19 2014


NOTE: "FAIR" INDICATES FEW OR NO CLOUDS BELOW 12,000 FEET WITH NO
SIGNIFICANT WEATHER AND/OR OBSTRUCTIONS TO VISIBILITY. N/A MEANS
CURRENT SKY AND/OR WEATHER CONDITIONS ARE NOT AVAILABLE.

MNZ060>063-068>070-200100-
   Twin Cities Metro

CITY           SKY/WX    TMP DP  RH WIND       PRES   REMARKS
TWIN CITIES    MOCLDY    74  63  68 CALM      29.67S
6HR MIN TEMP:  72; 6HR MAX TEMP:  81;

ST PAUL        MOCLDY    72  64  76 NE3       29.67S
CRYSTAL        CLOUDY    73  63  70 CALM      29.65F
BLAINE         MOCLDY    72  66  83 E3        29.66S
LAKEVILLE      CLOUDY    77  64  65 S3        29.67S
EDEN PRAIRIE   CLOUDY    73  65  75 E6        29.65F
6HR MIN TEMP:  72; 6HR MAX TEMP:  79;

SOUTH ST PAUL  MOCLDY    73  63  70 N5        29.66F
LAKE ELMO      MOCLDY    70  64  83 NW3       29.69R
$$
MNZ001>005-007-008-013>017-022>024-027-028-200100-
   Northwest Minnesota

CITY           SKY/WX    TMP DP  RH WIND       PRES   REMARKS
BEMIDJI        MOCLDY    65  62  88 S5        29.59F
HALLOCK        PTCLDY    73  61  64 NW13G24   29.48R
ROSEAU         PTCLDY    70  63  78 CALM      29.52R
WARROAD        MOCLDY    68  64  88 CALM      29.53R
THIEF RVR FALL CLEAR     72  64  78 S9        29.52F
CROOKSTON      PTCLDY    75  66  73 SW7       29.52S
FOSSTON        CLEAR     72  63  73 S8        29.57F
DETROIT LAKES  CLEAR     70  64  83 S6        29.62S
MOORHEAD       CLEAR     75  70  83 SW7       29.58S
PARK RAPIDS    CLOUDY    66  63  90 S7        29.62S
MAHNOMEN       FAIR      71  65  80 S8        29.58S
$$
MNZ006-009>011-018-025>026-200100-
   North Central Minnesota

CITY           SKY/WX    TMP DP  RH WIND       PRES   REMARKS
BAUDETTE       MOCLDY    65  62  90 CALM      29.54S
FLAG ISLAND    MOCLDY    63  61  94 CALM      29.51S FOG
INTL FALLS     CLOUDY    64  62  93 S7        29.56F
6HR MIN TEMP:  60; 6HR MAX TEMP:  64; 6HR PCP:  0.25;

WASKISH        MOCLDY    66  63  88 CALM      29.57S
BIG FORK       DRIZZLE   63  61  94 S5        29.61F
LONGVILLE      CLOUDY    63  61  94 CALM      29.63S FOG
GRAND RAPIDS   CLOUDY    61  59  94 SW6       29.63S
CRANE LAKE     CLOUDY    59  57  94 CALM      29.61F FOG
ORR            CLOUDY    61  57  88 CALM      29.59S FOG
COOK           CLOUDY    61  59  94 SW5       29.63S FOG
WALKER         CLOUDY    64  61  90 SW3       29.61F
$$
MNZ012-019>021-037-200100-
   Northeast Minnesota

CITY           SKY/WX    TMP DP  RH WIND       PRES   REMARKS
DULUTH         CLOUDY    64  60  87 SW10      29.64S FOG
6HR MIN TEMP:  61; 6HR MAX TEMP:  64; 6HR PCP:  0.02;

ELY            CLOUDY    59  57  94 SW9       29.63S FOG
HIBBING        CLOUDY    62  59  90 SW5       29.63S FOG
EVELETH        CLOUDY    59  59 100 SW7       29.64S FOG
DULUTH HARBOR  CLOUDY    63  61  94 W8        29.63S
TWO HARBORS    CLOUDY    61  55  82 SW9       29.62S HAZE
SILVER BAY     CLOUDY    61  61 100 SW3       29.62S FOG
GRAND MARAIS     N/A     52  51  97 CALM      29.62F
G MARAIS ARPRT FOG       57  54  88 S9G20     29.64S VSB 1
$$
MNZ029>031-032-039>041-046>048-054>057-064-200100-
   West Central Minnesota

CITY           SKY/WX    TMP DP  RH WIND       PRES   REMARKS
FERGUS FALLS   CLEAR     72  63  73 S8        29.62R
WHEATON        PTCLDY    72  64  78 S7        29.64S
MORRIS         MOCLDY    73  66  78 SW5       29.65R
ALEXANDRIA     MOCLDY    69  65  86 SW7       29.67S
ELBOW LAKE     FAIR      69  65  88 S7        29.64R
WADENA         PTCLDY    66  63  88 SW5       29.63S
GLENWOOD       MOCLDY    70  66  88 S6        29.67S
APPLETON       MOCLDY    75  66  73 CALM      29.65S
BENSON         MOCLDY    73  68  83 CALM      29.65S
ORTONVILLE     PTCLDY    75  64  69 SW3       29.66R
MADISON        MOCLDY    79  70  73 SW5       29.66S
WILLMAR        FAIR      73  64  73 CALM      29.68R
$$
MNZ033>034-036-042>043-049>051-058-059-200100-
   Central Minnesota

CITY           SKY/WX    TMP DP  RH WIND       PRES   REMARKS
ST CLOUD       CLOUDY    69  64  84 CALM      29.66S
6HR MIN TEMP:  64; 6HR MAX TEMP:  70; 6HR PCP: TRACE;

SAUK CENTRE    FAIR      68  65  88 S5        29.66F
PAYNESVILLE    MOCLDY    67  65  94 CALM      29.67S
AITKIN         CLOUDY    66  61  82 S8        29.63R HAZE
PINE RIVER     CLOUDY    64  63  94 CALM      29.68R
BRAINERD       CLOUDY    63  62  97 MISG      29.64S FOG
STAPLES        CLOUDY    64  63  94 S6        29.64R
LONG PRAIRIE   FAIR      64  63  94 SE5       29.66S
LITTLE FALLS   PTCLDY    64  61  88 S3        29.65F
LITCHFIELD     CLOUDY    72  70  94 CALM      29.68R
BUFFALO        LGT RAIN  70  64  81 CALM      29.67S
MAPLE LAKE     CLOUDY    68  66  92 CALM      29.67S
$$
MNZ037-044-045-052-053-200100-
   East Central Minnesota

CITY           SKY/WX    TMP DP  RH WIND       PRES   REMARKS
PRINCETON      CLOUDY    68  64  88 SE1       29.67R
MORA           MOCLDY    64  63  94 CALM      29.68S
CAMBRIDGE      LGT RAIN  68  59  73 CALM      29.65S
RUSH CITY      CLOUDY    65  62  90 CALM      29.67F
MOOSE LAKE     MOCLDY    63  61  94 SW5       29.64R FOG
HINCKLEY       MOCLDY    64  63  94 S3        29.66S FOG
CLOQUET        CLOUDY    63  61  94 SW8       29.65R
MCGREGOR       CLOUDY    63  61  94 SW8       29.65S
$$
MNZ071>073-080-081-089-090-097-098-200100-
   Southwest Minnesota

CITY           SKY/WX    TMP DP  RH WIND       PRES   REMARKS
MONTEVIDEO     MOCLDY    77  66  69 W5        29.67S
GRANITE FALLS  MOCLDY    73  68  83 W7        29.68S
CANBY          CLOUDY    75  67  75 W5        29.69S
MARSHALL       CLOUDY    75  66  73 NW9       29.68R
REDWOOD FALLS  CLOUDY    80  67  64 SW6       29.66R
OLIVIA         LGT RAIN  73  68  83 W3        29.66S
PIPESTONE      PTCLDY    79  66  65 NW3       29.72S
WINDOM         PTCLDY    82  64  54 S9        29.69F
WORTHINGTON    PTCLDY    81  66  61 SW10G18   29.72S
JACKSON        CLEAR     81  64  57 S7        29.72S
TRACY          MOCLDY    79  68  69 CALM      29.69S
SLAYTON        MOCLDY    80  65  59 W8        29.71S
$$
MNZ065>067-074>077-082>085-091>093-200100-
   South Central Minnesota

CITY           SKY/WX    TMP DP  RH WIND       PRES   REMARKS
MANKATO        MOCLDY    81  63  54 S10       29.68S
NEW ULM        CLOUDY    79  68  69 W5        29.67R
FAIRMONT       PTCLDY    81  57  44 S13G21    29.71F
GLENCOE        CLOUDY    76  66  72 CALM      29.66R
FARIBAULT      MOCLDY    81  61  50 S7        29.70S
OWATONNA       PTCLDY    79  64  61 S14G20    29.72S
WASECA         CLOUDY    79  59  50 S16       29.73S
ALBERT LEA     CLEAR     79  64  61 S10G17    29.75S
$$
MNZ078>079-086>088-094>096-200100-
   Southeast Minnesota

CITY           SKY/WX    TMP DP  RH WIND       PRES   REMARKS
ROCHESTER      PTCLDY    73  62  68 S14G24    29.78S
6HR MIN TEMP:  71; 6HR MAX TEMP:  76;

RED WING       CLOUDY    79  63  57 S13G18    29.68F
STANTON        MOCLDY    79  64  59 S10G16    29.67S
DODGE CENTER   MOCLDY    75  64  69 S13G20    29.75S
WINONA         PTCLDY    73  61  64 S5        29.77S
AUSTIN         CLOUDY    73  64  73 S10G17    29.77S
PRESTON        CLEAR     71  64  79 S13G23    29.80R
$$
ABBREVIATIONS USED IN REMARKS
   TC - TEMPERATURES IN CELSIUS
  WCI - WIND CHILL INDEX
   HX - HEAT INDEX
  VSB - VISIBILITY
$$


USA.gov is the U.S. government's official web portal to all federal, state and local government web resources and services.